{"data":{"norad_id":66308,"epoch":"2026-05-24T13:56:35.644704Z","epoch_age_seconds":111447,"freshness":"FRESH","line1":"1 66308U 25248R   26144.58096811  .00002811  00000+0  13994-3 0  9999","line2":"2 66308  45.3979 247.7820 0005999 258.5864 101.4349 15.20269268 30929","mean_motion":15.20269268,"eccentricity":0.0005999,"inclination_deg":45.3979,"raan_deg":247.782,"arg_perigee_deg":258.5864,"mean_anomaly_deg":101.4349,"bstar":0.00013994,"rev_number":3092,"period_min":94.720062446201,"perigee_km":500.8985254606,"apogee_km":509.15694651084,"semimajor_km":6883.1647359857,"source":"CELESTRAK","updated_at":"2026-05-25T13:38:06.132509Z"}}